Regional Weather Roundup
Issued by NWS

Home | Current Version | Previous Version | Text Only | Print | Product List | Glossary On
Versions: 1 2 3 4 5 6 7 8 9 10 11 12 13 14 15 16 17 18 19 20 21 22 23 24 25 26 27 28 29 30 31 32 33 34 35 36 37 38 39 40 41 42 43 44 45 46 47 48 49 50
731
ASUS44 KJAN 012103
RWRMS

MISSISSIPPI HOURLY WEATHER ROUNDUP
NATIONAL WEATHER SERVICE JACKSON MS
300 PM CST SUN FEB 01 2015

NOTE: "FAIR: INDICATES FEW OR NO CLOUDS BELOW 12,000 FEET WITH NO
SIGNIFICANT WEATHER AND/OR OBSTRUCTIONS TO VISIBILITY.

MSZ001>002-007>008-010>013-018>021-025>028-034>036-012200-
NORTHWEST MISSISSIPPI

CITY           SKY/WX    TMP DP  RH WIND       PRES   REMARKS
CLARKSDALE     PTSUNNY   59  59 100 SW20G25   29.73S
CLEVELAND      RAIN      62  61  97 SW14      29.74S
GREENWOOD      LGT RAIN  66  57  72 SW17G24   29.76F
GREENVILLE     RAIN      64  59  83 SW17      29.74S
GRENADA        HVY RAIN  63  55  77 S8G17     29.74F
OXFORD         CLOUDY    55  55 100 S10G16    29.73F FOG
TUNICA         RAIN      59  55  88 W24       29.74R
$$

MSZ003>006-009-014>017-022>024-029>033-037>039-012200-
NORTHEAST MISSISSIPPI

CITY           SKY/WX    TMP DP  RH WIND       PRES   REMARKS
COLUMBUS AFB   MOSUNNY   60  54  80 S13G21    29.79F
CORINTH        LGT RAIN  54  52  94 S13G20    29.71F
GOLDN TRIANGLE PTSUNNY   61  55  82 S15       29.80F
STARKVILLE     CLOUDY    63  57  82 S7        29.79S
TUPELO         CLOUDY    55  51  86 S15       29.74F
$$

MSZ040-058-012200-
CENTRAL MISSISSIPPI

CITY           SKY/WX    TMP DP  RH WIND       PRES   REMARKS
JACKSON INTL   CLOUDY    69  58  67 S14G20    29.81F
JACKSON HAWKNS LGT RAIN  67  59  75 SW14G20   29.81F
MERIDIAN KEY   CLOUDY    66  58  75 S12       29.83F
MERIDIAN NAS   PTSUNNY   67  58  72 S9        29.84F
RAYMOND        LGT RAIN  66  63  88 S7        29.81S
VICKSBURG      PTSUNNY   72  59  63 SW9G16    29.80F
$$

MSZ059>079-012200-
SOUTH MISSISSIPPI

CITY           SKY/WX    TMP DP  RH WIND       PRES   REMARKS
BROOKHAVEN     MOCLDY    66  61  82 S12       29.85F
HATTIESBURG    LGT RAIN  66  60  81 SW13      29.91R
MCCOMB         PTSUNNY   64  62  93 S12       29.87F
NATCHEZ        PTSUNNY   72  61  68 SW10      29.82F
PINE BELT      CLOUDY    64  59  82 SW10G20   29.90S
$$

MSZ080>082-012200-
COASTAL MISSISSIPPI

CITY           SKY/WX    TMP DP  RH WIND       PRES   REMARKS
BAY ST LOUIS   PTSUNNY   73  59  60 S9        29.91F
BILOXI         CLOUDY    65  63  95 SW12      29.92F
PASCAGOULA     PTSUNNY   66  63  90 S7        29.92F
GULFPORT       MOSUNNY   66  62  87 S7        29.91F
$$



USA.gov is the U.S. government's official web portal to all federal, state and local government web resources and services.